Regional Weather Roundup
Issued by NWS Charleston, WV

Home | Current Version | Previous Version | Graphics & Text | Print | Product List | Glossary On
Versions: 1 2 3 4 5 6 7 8 9 10 11 12 13 14 15 16 17 18 19 20 21 22 23 24 25 26 27 28 29 30 31 32 33 34 35 36 37 38 39 40 41 42 43 44 45 46 47 48 49 50
000
ASUS41 KRLX 040910
RWRRLX
West Virginia Regional Weather Roundup
National Weather Service Charleston WV
500 AM EDT MON MAY 04 2015

Note: "fair" indicates few or no clouds below 12,000 feet with no
significant weather and/or obstructions to visibility.

WVZ003-041000-
Northern Panhandle of West Virginia

CITY           SKY/WX    TMP DP  RH WIND       PRES   REMARKS
WHEELING       CLEAR     57  38  48 CALM      30.15S
$$

WVZ009-041000-
Northwest West Virginia

CITY           SKY/WX    TMP DP  RH WIND       PRES   REMARKS
PARKERSBURG    CLEAR     47  43  86 CALM      30.18S
$$

WVZ006-041000-
Western West Virginia

CITY           SKY/WX    TMP DP  RH WIND       PRES   REMARKS
HUNTINGTON     CLEAR     49  46  90 CALM      30.15R
$$

WVZ015-041000-
West Central West Virginia

CITY           SKY/WX    TMP DP  RH WIND       PRES   REMARKS
CHARLESTON     CLEAR     48  44  86 CALM      30.16S
$$

WVZ022-031-041000-
North Central West Virginia

CITY           SKY/WX    TMP DP  RH WIND       PRES   REMARKS
CLARKSBURG     CLEAR     48  43  82 CALM      30.18R
MORGANTOWN     CLEAR     50  40  68 CALM      30.18S
$$

WVZ025-035-042-045-041000-
Southern West Virginia

CITY           SKY/WX    TMP DP  RH WIND       PRES   REMARKS
BECKLEY        CLEAR     50  42  74 CALM      30.23R
LOGAN            N/A     55  39  54 CALM      30.16R
BLUEFIELD      CLEAR     59  42  53 SW5       30.25R
LEWISBURG      CLEAR     44  39  82 N3        30.24R
$$

WVZ047-041000-
Northern Mountains of West Virginia

CITY           SKY/WX    TMP DP  RH WIND       PRES   REMARKS
ELKINS         CLEAR     40  37  89 CALM      30.24R
$$

WVZ052-041000-
Eastern Panhandle of West Virginia

CITY           SKY/WX    TMP DP  RH WIND       PRES   REMARKS
MARTINSBURG    CLEAR     50  44  80 CALM      30.18S
PETERSBURG     CLEAR     41  38  87 CALM      30.22R
$$


USA.gov is the U.S. government's official web portal to all federal, state and local government web resources and services.